星链-3292 (STARLINK-3292 )

导读

STARLINK-3292是美国SpaceX公司星链(Starlink)星座的一员,于2021年12月18日发射入轨,属于星链低轨互联网通信卫星。它采用平板设计与霍尔推进技术,运行在近地轨道,承担全球宽带互联网接入服务任务,支持Ku/Ka波段通信,具备自主避撞能力,寿命末期会主动离轨坠入大气层销毁,是星链星座全球覆盖组网的重要组成部分。

Basic Information
目录编号:
50174
目录名称:
STARLINK-3292
国际标识:
2021-125U
轨道中心:
EARTH
卫星名称:
星链-3292
卫星全名:
星链-3292 (STARLINK-3292 )
卫星状态:
在轨 (已飞行1642 天)
发射日期:
2021-12-18 UTC
国别 :
美国 (US)
星等 :
--
Orbit Information
数据来源 国际轨道数据 AOE轨道数据
星历时间 2026-06-18T00:00:02+0800
5小时前
查看轨道信息
2026-06-13T00:00:00+0800
5天前
查看轨道信息
半长轴 6901.861km 6917.901km
偏心率 0.0001184 0.0001353
轨道倾角 53.159° 53.158°
近地点辐角 145.023° 106.891°
升交点赤经 155.763° 178.293°
平近点角 147.372° 342.946°
近地点 522.906km 538.828km
远地点 524.542km 540.7km
周期 95.106分钟 95.438分钟
每日圈数 15.140964 15.088335
Detailed Information
固有亮度:
5
最大亮度:
2.5
卫星平台:
Starlink v1.5
覆盖范围:
全球
运营商:
太空探索技术公司
运营商所在国:
美国
制造商(研发单位):
太空探索技术公司
制造商所在国:
美国
使用方式:
暂无
Satellite Introduction
星链(Starlink)计划是由太空探索技术公司(SpaceX)提出的一个巨型低轨卫星互联网星座项目,计划在2019年至2024年间在太空搭建由约1.2万颗卫星组成的“星链”网络,其中1584颗将部署在地球上空550千米处的近地轨道,并从2020年开始工作。该卫星仍在工作。
2D Orbit Map
3D Orbit Map
Orbit Altitude Analysis Chart
Orbit Inclination Analysis Chart
Orbit Comprehensive Analysis Chart
View Comprehensive Chart